[[[{"header":{"parameterUnit":"kt","parameterCategory":2,"dx":1,"dy":1,"la1":30.253999710083008,"la2":30.299108505249023,"lo1":-89.0895004272461,"lo2":-89.04439544677734,"nx":28,"ny":28,"refTime":"2022-10-16T21:00:00:Z","depth":0,"parameterNumber":1,"parameterNumberName":"U-component_of_WINDS"},"data":[-1.1538,-1.1686,-1.1729,-1.1917,-1.1988,-1.2125,-1.2188,-1.2274,-1.2355,-1.2524,-1.2629,-1.2689,-1.2788,-1.2925,-1.3042,-1.3067,-1.3115,-1.3133,-1.316,-1.3033,-1.3019,-1.3005,-1.2973,-1.3142,-1.3142,-1.3286,-1.3287,-1.3288,-1.1437,-1.1508,-1.162,-1.1759,-1.1856,-1.1863,-1.1975,-1.2056,-1.2179,-1.2279,-1.2386,-1.2539,-1.2666,-1.2762,-1.2892,-1.2964,-1.2976,-1.2996,-1.2993,-1.3009,-1.2874,-1.284,-1.2983,-1.2983,-1.2983,-1.2983,-1.2983,-1.2983,-1.1264,-1.1351,-1.1461,-1.1584,-1.1666,-1.1759,-1.185,-1.1922,-1.2034,-1.2176,-1.2208,-1.2349,-1.2459,-1.264,-1.2713,-1.2825,-1.2812,-1.2849,-1.2859,-1.2868,-1.2871,-1.2659,-1.2849,-1.2849,-1.2848,-1.2848,-1.2848,0,-1.1152,-1.1183,-1.1295,-1.1419,-1.1512,-1.1614,-1.1715,-1.1773,-1.1856,-1.1946,-1.2079,-1.2165,-1.2333,-1.2465,-1.2599,-1.2668,-1.269,-1.2696,-1.2722,-1.271,-1.2681,-1.27,-1.2479,-1.2692,-1.2691,-1.269,-1.2689,-1.2689,-1.0983,-1.108,-1.1217,-1.129,-1.1356,-1.1473,-1.1552,-1.1619,-1.17,-1.1836,-1.1911,-1.2043,-1.2154,-1.2362,-1.245,-1.2577,-1.259,-1.2665,-1.2609,-1.2591,-1.2594,-1.2588,-1.2599,-1.2676,-1.2678,-1.2679,-1.268,0,-1.0884,-1.0957,-1.1122,-1.125,-1.1285,-1.1383,-1.1494,-1.1585,-1.1646,-1.178,-1.1816,-1.1914,-1.2046,-1.2122,-1.2288,-1.2324,-1.2489,-1.2496,-1.245,-1.2457,-1.2534,-1.2526,-1.2769,-1.2805,-1.2627,-1.2629,-1.263,0,-1.0771,-1.0895,-1.0998,-1.109,-1.123,-1.1295,-1.1433,-1.15,-1.1597,-1.1704,-1.1738,-1.1838,-1.192,-1.203,-1.2084,-1.2232,-1.2263,-1.23,-1.2314,-1.2299,-1.2295,-1.2348,-1.2341,-1.2338,-1.2336,-1.2335,-1.2334,0,-1.061,-1.0812,-1.0961,-1.1019,-1.1171,-1.1239,-1.1306,-1.1416,-1.1494,-1.1608,-1.1659,-1.1787,-1.1858,-1.1957,-1.2025,-1.1984,-1.2207,-1.2165,-1.2246,-1.2244,-1.2295,-1.2291,-1.2483,-1.2333,-1.2332,-1.2332,-1.2331,0,-1.0532,-1.0644,-1.0849,-1.0976,-1.1026,-1.1125,-1.1255,-1.1357,-1.1472,-1.1512,-1.1602,-1.1637,-1.1771,-1.1724,-1.1911,-1.1839,-1.1906,-1.1955,-1.1962,-1.1982,-1.1928,-1.203,-1.2202,-1.2224,-1.1995,-1.1992,-1.199,0,-1.0329,-1.0556,-1.0614,-1.0808,-1.0924,-1.0956,-1.1067,-1.1167,-1.123,-1.1339,-1.1409,-1.1533,-1.1514,-1.1564,-1.1646,-1.1725,-1.1819,-1.1714,-1.1874,-1.1878,-1.1844,-1.2002,-1.2011,-1.2154,-1.1955,-1.1958,-1.1961,0,-1.0182,-1.0365,-1.0396,-1.0466,-1.061,-1.0708,-1.0835,-1.0972,-1.1041,-1.115,-1.1261,-1.1436,-1.143,-1.1513,-1.1556,-1.1637,-1.1757,-1.1621,-1.1625,-1.1644,-1.1943,-1.195,-1.1974,-1.1768,-1.1772,-1.1776,-1.1933,0,-1.005,-1.0174,-1.0259,-1.0413,-1.05,-1.0627,-1.0709,-1.079,-1.0821,-1.0886,-1.1049,-1.1155,-1.1298,-1.1345,-1.1379,-1.154,-1.1526,-1.1519,-1.1483,-1.1585,-1.1639,-1.1661,-1.1394,-1.1394,-1.1393,-1.1393,0,0,-0.9839,-1.0019,-1.0081,-1.0207,-1.0285,-1.0319,-1.0447,-1.0528,-1.069,-1.0744,-1.0723,-1.0988,-1.1076,-1.1266,-1.1304,-1.1362,-1.1399,-1.1362,-1.1535,-1.155,-1.1565,-1.1621,-1.1643,-1.1392,-1.1392,-1.1392,-1.1392,0,-0.9809,-0.9894,-1.0019,-1.0104,-1.0233,-1.0296,-1.0326,-1.0461,-1.051,-1.067,-1.0699,-1.0807,-1.1018,-1.1108,-1.1181,-1.1339,-1.1357,-1.1376,-1.1433,-1.1527,-1.1543,-1.1557,-1.1616,-1.1635,-1.139,-1.139,-1.1391,0,-0.9681,-0.9779,-0.9848,-1.0027,-1.0113,-1.0233,-1.0213,-1.034,-1.043,-1.0466,-1.0625,-1.0696,-1.0824,-1.0992,-1.1071,-1.1056,-1.1314,-1.1248,-1.1253,-1.1265,-1.136,-1.1379,-1.1396,-1.1172,-1.1171,-1.117,0,0,-0.9644,-0.976,-0.9889,-1.0027,-1.0079,-1.0175,-1.0247,-1.0288,-1.04,-1.0446,-1.0538,-1.0648,-1.0772,-1.0852,-1.0973,-1.1145,-1.1179,-1.1217,-1.1228,-1.1236,-1.1252,-1.1349,-1.1368,-1.1166,-1.1166,-1.1165,0,0,-0.9628,-0.9782,-0.9794,-0.9965,-1.0069,-1.0208,-1.029,-1.031,-1.0427,-1.0422,-1.0499,-1.0532,-1.0691,-1.0761,-1.0694,-1.0962,-1.0924,-1.0942,-1.0911,-1.0926,-1.0936,-1.0918,-1.0693,0,0,0,0,0,-0.964,-0.9762,-0.9771,-0.9813,-1.0042,-1.0202,-1.0232,-1.0297,-1.0268,-1.0331,-1.0411,-1.0426,-1.074,-1.0683,-1.0724,-1.0799,-1.1111,-1.1121,-1.113,-1.1132,-1.1146,-1.1158,0,0,0,0,0,0,-0.9657,-0.9707,-0.9769,-0.9911,-0.9963,-1.0198,-1.0163,-1.0184,-1.0263,-1.0263,-1.041,-1.0431,-1.0491,-1.0667,-1.0703,-1.0773,-1.0681,-1.1115,-1.1123,-1.1131,-1.1137,-1.1148,-1.1158,0,0,0,0,0,-0.9671,-0.9711,-1.0061,-0.991,-0.9955,-1.007,-1.0159,-1.0177,-1.0239,-1.0365,-1.0386,-1.0281,-1.0491,-1.0526,-1.0688,-1.0755,-1.0657,-1.067,-1.112,-1.1127,-1.1133,-1.1143,0,0,0,0,0,0,-0.9681,-0.9729,-1.0072,-1.0088,-0.9869,-1.0058,-1.009,-1.017,-1.0337,-1.0359,-1.0239,-1.0237,-1.0493,-1.0519,-1.0546,-1.0745,-1.0637,-1.065,-1.0658,-1.1125,-1.113,-1.1135,0,0,0,0,0,0,-0.9708,-0.9743,-1.008,-1.0025,-1.0036,-1.0047,-1.0075,-1.0224,-1.0339,-1.0202,-1.0206,-1.0236,-1.0453,-1.0515,-1.0536,-1.0765,-1.0622,-1.0634,-1.0643,-1.0649,-1.1129,-1.1133,0,0,0,0,0,0,-0.9724,-0.9754,-1.0021,-1.0029,-1.0038,-1.0226,-1.018,-1.0412,-1.0288,-1.0194,-1.0279,-1.0275,-1.0449,-1.0472,-1.0529,-1.0749,-1.0761,-1.0622,-1.0631,-1.0637,-1.0641,0,0,0,0,0,0,0,-0.9737,-0.9521,-0.9975,-1.0033,-1.0041,-1.0238,-1.0243,-1.0247,-1.0288,-1.0284,-1.028,-1.0277,-1.0549,-1.0563,-1.0577,-1.0737,0,0,-1.0621,-1.0627,0,0,0,0,0,0,0,0,-0.951,-0.9518,-0.9975,-0.9978,-0.9982,-1.0239,-1.0243,-1.0246,-1.0287,-1.0284,-1.0281,-1.0278,-1.0553,-1.0564,-1.0575,0,0,0,0,0,0,0,0,0,0,0,0,0,0,0,-0.9975,-0.9978,0,-1.024,-1.0243,-1.0246,-1.0287,-1.0284,-1.0282,-1.028,-1.0556,-1.0565,-1.0574,0,0,0,0,0,0,0,0,0,0,0,0,0,0,0,0,0,0,0,0,0,0,0,0,0,0,0,0,0,0,0,0,0,0,0,0,0,0,0,0,0,0,0,0,0,0,0,0,0,0,0,0,0,0,0,0,0,0,0,0,0,0,0,0,0,0,0,0,0]}],[{"header":{"parameterUnit":"kt","parameterCategory":2,"dx":1,"dy":1,"la1":30.253999710083008,"la2":30.299108505249023,"lo1":-89.0895004272461,"lo2":-89.04439544677734,"nx":28,"ny":28,"refTime":"2022-10-16T21:00:00:Z","depth":0,"parameterNumber":2,"parameterNumberName":"V-component_of_WINDS"},"data":[-17.1977,-17.228,-17.2294,-17.2643,-17.2713,-17.2952,-17.3042,-17.3157,-17.3251,-17.3533,-17.3697,-17.3737,-17.3832,-17.4026,-17.42,-17.4212,-17.4285,-17.4382,-17.438,-17.3937,-17.3876,-17.3817,-17.3748,-17.4398,-17.4399,-17.4837,-17.4841,-17.4844,-17.1649,-17.1723,-17.1913,-17.2105,-17.2267,-17.2181,-17.2324,-17.2463,-17.2678,-17.2796,-17.2958,-17.3206,-17.3401,-17.3463,-17.3651,-17.3787,-17.3755,-17.3837,-17.3827,-17.3842,-17.3369,-17.3296,-17.386,-17.386,-17.386,-17.386,-17.3859,-17.3859,-17.1054,-17.1236,-17.136,-17.1566,-17.1665,-17.1793,-17.1965,-17.2013,-17.2195,-17.2398,-17.2374,-17.2615,-17.2732,-17.2963,-17.3042,-17.3226,-17.3136,-17.3228,-17.3251,-17.3274,-17.3299,-17.2664,-17.3258,-17.3257,-17.3255,-17.3254,-17.3253,0,-17.0623,-17.0622,-17.0805,-17.0992,-17.1142,-17.1287,-17.1421,-17.1528,-17.1525,-17.1675,-17.1892,-17.2018,-17.2266,-17.2468,-17.2646,-17.2708,-17.263,-17.2623,-17.2686,-17.2701,-17.2692,-17.2699,-17.1926,-17.2605,-17.26,-17.2596,-17.2593,-17.259,-17.0023,-17.0233,-17.0369,-17.0495,-17.0572,-17.0776,-17.0899,-17.0881,-17.1011,-17.1171,-17.1329,-17.1532,-17.1694,-17.2036,-17.2082,-17.2265,-17.2228,-17.2486,-17.2255,-17.2261,-17.2231,-17.2219,-17.2239,-17.2532,-17.2539,-17.2545,-17.255,0,-16.9684,-16.9704,-17.0033,-17.0146,-17.018,-17.04,-17.0494,-17.0671,-17.0696,-17.0943,-17.0999,-17.1037,-17.1249,-17.1254,-17.1495,-17.149,-17.1844,-17.1804,-17.1804,-17.1796,-17.2026,-17.2005,-17.2777,-17.2876,-17.2203,-17.2209,-17.2215,0,-16.918,-16.9455,-16.9469,-16.9659,-16.9963,-16.9938,-17.0239,-17.029,-17.0392,-17.0587,-17.05,-17.0684,-17.0661,-17.0845,-17.0839,-17.1129,-17.1174,-17.1187,-17.1182,-17.1196,-17.1194,-17.1262,-17.123,-17.1164,-17.116,-17.1156,-17.1153,0,-16.8646,-16.8977,-16.9285,-16.9363,-16.951,-16.9654,-16.9721,-16.9835,-16.9955,-17.011,-17.0187,-17.0369,-17.0469,-17.0609,-17.06,-17.0443,-17.0955,-17.0737,-17.0968,-17.0969,-17.1081,-17.1074,-17.1758,-17.1148,-17.1147,-17.1146,-17.1144,0,-16.8241,-16.8405,-16.885,-16.8969,-16.9056,-16.9258,-16.9438,-16.9612,-16.9738,-16.9748,-16.987,-16.9812,-17.0068,-16.985,-17.0201,-16.9998,-17.01,-17.0136,-17.0153,-17.0175,-16.9932,-17.0316,-17.0968,-17.1035,-17.0196,-17.0188,-17.0181,0,-16.7625,-16.8079,-16.8062,-16.8484,-16.8694,-16.8584,-16.8807,-16.8922,-16.8955,-16.9134,-16.9167,-16.9372,-16.9212,-16.9276,-16.9449,-16.949,-16.9753,-16.9455,-16.9708,-16.9718,-16.9679,-17.0279,-17.0374,-17.0825,-17.008,-17.0091,-17.0098,0,-16.7149,-16.7328,-16.7405,-16.7493,-16.7644,-16.7819,-16.8076,-16.8274,-16.8395,-16.8534,-16.8746,-16.9033,-16.8924,-16.9031,-16.9003,-16.9183,-16.9574,-16.904,-16.9042,-16.9135,-17.003,-17.0119,-17.0195,-16.9514,-16.9527,-16.9536,-17.0018,0,-16.6532,-16.6762,-16.6971,-16.7168,-16.7304,-16.7569,-16.7578,-16.7719,-16.7679,-16.7707,-16.802,-16.8114,-16.8314,-16.8401,-16.8363,-16.8774,-16.8705,-16.8586,-16.8374,-16.8768,-16.8926,-16.8991,-16.8137,-16.8131,-16.8126,-16.8121,0,0,-16.5937,-16.6266,-16.6239,-16.6489,-16.6603,-16.6485,-16.6766,-16.6862,-16.7058,-16.7137,-16.702,-16.7439,-16.7521,-16.7899,-16.8023,-16.8104,-16.8177,-16.8039,-16.8581,-16.8632,-16.8679,-16.8849,-16.8916,-16.8112,-16.811,-16.8108,-16.8107,0,-16.5714,-16.5806,-16.6087,-16.6186,-16.6331,-16.6348,-16.6415,-16.6537,-16.6568,-16.6876,-16.6771,-16.6958,-16.7295,-16.7395,-16.749,-16.7994,-16.7903,-16.8054,-16.8323,-16.8528,-16.8586,-16.8637,-16.8816,-16.8881,-16.8094,-16.8095,-16.8095,0,-16.5246,-16.5338,-16.5475,-16.5729,-16.5823,-16.6042,-16.5823,-16.6063,-16.6224,-16.6079,-16.6385,-16.6439,-16.6573,-16.693,-16.709,-16.6987,-16.7653,-16.7444,-16.7478,-16.7495,-16.7693,-16.7763,-16.7825,-16.7005,-16.7001,-16.6997,0,0,-16.5052,-16.5266,-16.5357,-16.5682,-16.5748,-16.5778,-16.5894,-16.5867,-16.5993,-16.6044,-16.611,-16.6234,-16.6428,-16.6557,-16.674,-16.7131,-16.7155,-16.731,-16.7362,-16.7404,-16.7444,-16.7653,-16.7722,-16.6983,-16.6983,-16.6982,0,0,-16.4957,-16.5078,-16.5016,-16.5395,-16.552,-16.563,-16.5826,-16.5753,-16.5919,-16.5889,-16.5851,-16.5882,-16.6216,-16.6272,-16.6079,-16.6664,-16.6454,-16.6501,-16.6615,-16.668,-16.6731,-16.671,-16.5865,0,0,0,0,0,-16.4734,-16.5063,-16.5006,-16.5071,-16.5391,-16.5662,-16.5702,-16.568,-16.5532,-16.5689,-16.5732,-16.5627,-16.6159,-16.5988,-16.6051,-16.6266,-16.6797,-16.683,-16.6861,-16.7101,-16.7169,-16.7226,0,0,0,0,0,0,-16.476,-16.484,-16.4997,-16.5121,-16.5192,-16.565,-16.5395,-16.5397,-16.5515,-16.5491,-16.5622,-16.5631,-16.5615,-16.5953,-16.6011,-16.6216,-16.5846,-16.681,-16.6838,-16.6863,-16.7125,-16.718,-16.7228,0,0,0,0,0,-16.478,-16.4844,-16.5363,-16.5116,-16.5178,-16.5228,-16.5382,-16.5382,-16.5472,-16.5541,-16.5547,-16.5446,-16.5622,-16.5668,-16.5987,-16.6191,-16.5806,-16.5827,-16.6828,-16.6851,-16.687,-16.7152,0,0,0,0,0,0,-16.4795,-16.4845,-16.5375,-16.5393,-16.4991,-16.5201,-16.5234,-16.537,-16.5514,-16.5524,-16.536,-16.534,-16.5631,-16.5665,-16.5701,-16.6183,-16.5773,-16.5795,-16.5809,-16.6845,-16.6862,-16.6878,0,0,0,0,0,0,-16.481,-16.4861,-16.5384,-16.5228,-16.5227,-16.5177,-16.5207,-16.5473,-16.5517,-16.5325,-16.5312,-16.535,-16.5574,-16.5665,-16.5692,-16.611,-16.5749,-16.5769,-16.5784,-16.5793,-16.6859,-16.6873,0,0,0,0,0,0,-16.4831,-16.4875,-16.5223,-16.5223,-16.5222,-16.5421,-16.5412,-16.574,-16.5387,-16.532,-16.5354,-16.5339,-16.5577,-16.5604,-16.5687,-16.6093,-16.6105,-16.5749,-16.5763,-16.5774,-16.578,0,0,0,0,0,0,0,-16.4848,-16.4562,-16.5269,-16.5219,-16.5217,-16.5559,-16.5564,-16.5569,-16.5384,-16.5371,-16.5358,-16.5346,-16.5629,-16.5652,-16.5675,-16.608,0,0,-16.5747,-16.5757,0,0,0,0,0,0,0,0,-16.4543,-16.4557,-16.527,-16.5274,-16.5277,-16.556,-16.5564,-16.5568,-16.5382,-16.5371,-16.5361,-16.5351,-16.5635,-16.5654,-16.5673,0,0,0,0,0,0,0,0,0,0,0,0,0,0,0,-16.527,-16.5273,0,-16.556,-16.5564,-16.5567,-16.538,-16.5371,-16.5363,-16.5355,-16.5641,-16.5656,-16.5671,0,0,0,0,0,0,0,0,0,0,0,0,0,0,0,0,0,0,0,0,0,0,0,0,0,0,0,0,0,0,0,0,0,0,0,0,0,0,0,0,0,0,0,0,0,0,0,0,0,0,0,0,0,0,0,0,0,0,0,0,0,0,0,0,0,0,0,0,0]}]]]